Charlevoix, MI

12:48 AM EDT on April 30, 2017 (GMT -0400)
Charlevoix Municipal

Weather History for KCVX - January, 2011

Change the Weather History Date:

Tuesday, January 4, 2011

  Actual Average Record
Temperature  
Mean Temperature 25 °F -  
Max Temperature 26 °F 36 °F 46 °F (2007)
Min Temperature 23 °F 19 °F 6 °F (2016)
Degree Days  
Heating Degree Days 40    
Moisture  
Dew Point 20 °F    
Average Humidity 81    
Maximum Humidity 100    
Minimum Humidity 59    
Precipitation  
Precipitation 0.00 in - - ()
Sea Level Pressure  
Sea Level Pressure 29.83 in    
Wind  
Wind Speed 9 mph (WNW)    
Max Wind Speed 16 mph    
Max Gust Speed 20 mph    
Visibility 6 miles    
Events Snow    
Averages and records for this station are not official NWS values.
T = Trace of Precipitation, MM = Missing Value Source: NWS Daily Summary

Daily Weather History Graph

Daily Weather History Graph

Search for Another Location

Airport or City:

Trip Planner

Search our weather history database for the weather conditions in past years. The results will help you decide how hot, cold, wet, or windy it might be!

Date:

Astronomy

Jan. 04, 2011 Rise Set
Actual Time 8:20 AM EST 5:11 PM EST
Civil Twilight 7:46 AM EST 5:45 PM EST
Nautical Twilight 7:09 AM EST 6:22 PM EST
Astronomical Twilight 6:33 AM EST 6:58 PM EST
Moon 8:28 AM EST (1/4) 5:45 PM EST (1/4)
Length of Visible Light 9h 58m
Length of Day
8h 51m
New Moon, 0% of the Moon is Illuminated
Jan 4
New Moon
Jan 12
First Quarter
Jan 19
Full
Jan 26
Last Quarter
Feb 2
New

Hourly Weather History & Observations

Time (EST) Temp. Windchill Dew Point Humidity Pressure Visibility Wind Dir Wind Speed Gust Speed Precip Events Conditions
12:14 AM 26.6 °F 16.2 °F 21.2 °F 80% 29.87 in 10.0 mi WSW 11.5 mph - N/A   Overcast
12:34 AM 26.6 °F 17.5 °F 23.0 °F 86% 29.87 in 3.0 mi WSW 9.2 mph 17.3 mph N/A Snow Light Snow
12:54 AM 24.8 °F 14.0 °F 23.0 °F 93% 29.86 in 2.5 mi West 11.5 mph - N/A Snow Light Snow
1:14 AM 26.6 °F 16.2 °F 21.2 °F 80% 29.86 in 10.0 mi West 11.5 mph - N/A Snow Light Snow
1:35 AM 26.6 °F 15.7 °F 21.2 °F 80% 29.85 in 10.0 mi West 12.7 mph 18.4 mph N/A   Overcast
1:54 AM 26.6 °F 15.2 °F 19.4 °F 74% 29.84 in 10.0 mi West 13.8 mph - N/A   Overcast
2:14 AM 26.6 °F 14.7 °F 21.2 °F 80% 29.85 in 7.0 mi West 15.0 mph - N/A   Overcast
2:34 AM 24.8 °F 12.9 °F 21.2 °F 86% 29.84 in 7.0 mi West 13.8 mph - N/A   Overcast
2:54 AM 24.8 °F 14.0 °F 21.2 °F 86% 29.84 in 4.0 mi West 11.5 mph - N/A Snow Light Snow
3:35 AM 24.8 °F 16.1 °F 23.0 °F 93% 29.84 in 2.5 mi West 8.1 mph - N/A Snow Light Snow
3:54 AM 24.8 °F 20.5 °F 23.0 °F 93% 29.83 in 5.0 mi WSW 3.5 mph - N/A Snow Light Snow
4:14 AM 24.8 °F 19.1 °F 23.0 °F 93% 29.82 in 1.2 mi SW 4.6 mph - N/A Snow Snow
4:35 AM 24.8 °F 19.1 °F 24.8 °F 100% 29.81 in 0.8 mi NNW 4.6 mph - N/A Snow Snow
4:54 AM 24.8 °F 17.9 °F 23.0 °F 93% 29.80 in 3.0 mi North 5.8 mph - N/A Snow Light Snow
5:14 AM 24.8 °F 20.5 °F 23.0 °F 93% 29.80 in 2.5 mi NNW 3.5 mph - N/A Snow Light Snow
5:35 AM 24.8 °F 20.5 °F 23.0 °F 93% 29.80 in 1.8 mi NNW 3.5 mph - N/A Snow Light Snow
5:54 AM 24.8 °F 20.5 °F 21.2 °F 86% 29.80 in 5.0 mi NNW 3.5 mph - N/A Snow Light Snow
6:14 AM 24.8 °F 17.9 °F 21.2 °F 86% 29.80 in 7.0 mi NNW 5.8 mph - N/A Snow Light Snow
6:34 AM 24.8 °F 20.5 °F 21.2 °F 86% 29.80 in 10.0 mi North 3.5 mph - N/A   Overcast
6:54 AM 24.8 °F 19.1 °F 21.2 °F 86% 29.80 in 10.0 mi North 4.6 mph - N/A   Overcast
7:15 AM 24.8 °F 20.5 °F 21.2 °F 86% 29.80 in 10.0 mi NNW 3.5 mph - N/A   Overcast
7:34 AM 24.8 °F 19.1 °F 21.2 °F 86% 29.80 in 5.0 mi NNW 4.6 mph - N/A Snow Light Snow
7:54 AM 24.8 °F 17.9 °F 21.2 °F 86% 29.80 in 10.0 mi WNW 5.8 mph - N/A   Overcast
8:15 AM 24.8 °F 16.1 °F 19.4 °F 80% 29.80 in 10.0 mi WNW 8.1 mph - N/A   Overcast
8:34 AM 24.8 °F 16.1 °F 19.4 °F 80% 29.80 in 10.0 mi WNW 8.1 mph - N/A   Overcast
8:54 AM 24.8 °F 16.9 °F 19.4 °F 80% 29.80 in 10.0 mi West 6.9 mph - N/A   Overcast
9:15 AM 24.8 °F 16.1 °F 19.4 °F 80% 29.81 in 10.0 mi WNW 8.1 mph - N/A   Overcast
9:34 AM 24.8 °F 15.3 °F 19.4 °F 80% 29.81 in 5.0 mi NNW 9.2 mph - N/A Snow Light Snow
9:54 AM 24.8 °F 15.3 °F 21.2 °F 86% 29.81 in 2.5 mi NNW 9.2 mph - N/A Snow Light Snow
10:15 AM 24.8 °F 16.1 °F 21.2 °F 86% 29.81 in 4.0 mi NNW 8.1 mph - N/A Snow Light Snow
10:34 AM 24.8 °F 15.3 °F 19.4 °F 80% 29.82 in 2.5 mi NW 9.2 mph - N/A Snow Light Snow
10:54 AM 24.8 °F 16.1 °F 19.4 °F 80% 29.81 in 4.0 mi NW 8.1 mph - N/A Snow Light Snow
11:14 AM 24.8 °F 14.6 °F 19.4 °F 80% 29.82 in 2.5 mi NW 10.4 mph - N/A Snow Light Snow
11:34 AM 24.8 °F 16.1 °F 19.4 °F 80% 29.82 in 1.5 mi NW 8.1 mph - N/A Snow Light Snow
11:55 AM 24.8 °F 15.3 °F 21.2 °F 86% 29.82 in 4.0 mi NW 9.2 mph - N/A Snow Light Snow
12:14 PM 24.8 °F 16.1 °F 21.2 °F 86% 29.82 in 2.5 mi WNW 8.1 mph - N/A Snow Light Snow
12:34 PM 24.8 °F 16.1 °F 21.2 °F 86% 29.82 in 1.5 mi NW 8.1 mph - N/A Snow Light Snow
12:55 PM 24.8 °F 16.9 °F 21.2 °F 86% 29.81 in 2.0 mi NW 6.9 mph - N/A Snow Light Snow
1:14 PM 24.8 °F 16.1 °F 21.2 °F 86% 29.81 in 1.0 mi NW 8.1 mph - N/A Snow Light Snow
1:34 PM 24.8 °F 16.9 °F 21.2 °F 86% 29.81 in 2.0 mi WNW 6.9 mph - N/A Snow Light Snow
1:54 PM 24.8 °F 14.0 °F 19.4 °F 80% 29.81 in 3.0 mi WNW 11.5 mph - N/A Snow Light Snow
2:14 PM 24.8 °F 14.0 °F 21.2 °F 86% 29.81 in 3.0 mi WNW 11.5 mph - N/A Snow Light Snow
2:34 PM 24.8 °F 14.0 °F 17.6 °F 74% 29.81 in 7.0 mi WNW 11.5 mph - N/A   Overcast
2:54 PM 24.8 °F 14.6 °F 17.6 °F 74% 29.82 in 10.0 mi WNW 10.4 mph - N/A   Overcast
3:14 PM 24.8 °F 14.0 °F 17.6 °F 74% 29.83 in 10.0 mi WNW 11.5 mph - N/A   Overcast
3:34 PM 24.8 °F 14.6 °F 17.6 °F 74% 29.83 in 10.0 mi WNW 10.4 mph - N/A   Overcast
3:54 PM 24.8 °F 15.3 °F 17.6 °F 74% 29.84 in 10.0 mi WNW 9.2 mph - N/A Snow Light Snow
4:14 PM 24.8 °F 13.4 °F 17.6 °F 74% 29.84 in 10.0 mi West 12.7 mph 17.3 mph N/A   Overcast
4:35 PM 24.8 °F 14.0 °F 15.8 °F 69% 29.85 in 10.0 mi West 11.5 mph 19.6 mph N/A   Overcast
4:54 PM 24.8 °F 13.4 °F 15.8 °F 69% 29.86 in 10.0 mi WSW 12.7 mph - N/A   Overcast
5:14 PM 24.8 °F 14.0 °F 15.8 °F 69% 29.87 in 10.0 mi West 11.5 mph - N/A   Overcast
5:34 PM 24.8 °F 15.3 °F 14.0 °F 64% 29.87 in 10.0 mi West 9.2 mph - N/A   Overcast
5:54 PM 24.8 °F 14.6 °F 12.2 °F 59% 29.88 in 10.0 mi West 10.4 mph 16.1 mph N/A   Overcast
6:15 PM 24.8 °F 14.0 °F 14.0 °F 64% 29.88 in 10.0 mi West 11.5 mph - N/A   Overcast
6:34 PM 24.8 °F 13.4 °F 14.0 °F 64% 29.89 in 10.0 mi West 12.7 mph - N/A   Overcast
6:54 PM 24.8 °F 11.9 °F 14.0 °F 64% 29.89 in 10.0 mi West 16.1 mph - N/A   Overcast
7:14 PM 23.0 °F 10.6 °F 14.0 °F 68% 29.89 in 10.0 mi West 13.8 mph - N/A   Mostly Cloudy
7:34 PM 23.0 °F 10.6 °F 12.2 °F 63% 29.90 in 10.0 mi West 13.8 mph 17.3 mph N/A   Scattered Clouds
7:54 PM 23.0 °F 12.4 °F 12.2 °F 63% 29.90 in 10.0 mi West 10.4 mph - N/A   Mostly Cloudy
8:14 PM 23.0 °F 11.1 °F 14.0 °F 68% 29.91 in 10.0 mi West 12.7 mph - N/A   Scattered Clouds
8:34 PM 23.0 °F 11.7 °F 14.0 °F 68% 29.91 in 10.0 mi West 11.5 mph - N/A   Mostly Cloudy
8:55 PM 23.0 °F 10.6 °F 12.2 °F 63% 29.91 in 10.0 mi West 13.8 mph - N/A   Mostly Cloudy
9:14 PM 23.0 °F 12.4 °F 12.2 °F 63% 29.91 in 10.0 mi West 10.4 mph - N/A   Mostly Cloudy
9:34 PM 23.0 °F 11.7 °F 12.2 °F 63% 29.92 in 10.0 mi West 11.5 mph - N/A   Mostly Cloudy
9:55 PM 24.8 °F 15.3 °F 14.0 °F 64% 29.92 in 10.0 mi West 9.2 mph - N/A   Overcast
10:14 PM 23.0 °F 13.9 °F 14.0 °F 68% 29.91 in 10.0 mi West 8.1 mph 16.1 mph N/A   Overcast
10:34 PM 24.8 °F 14.6 °F 14.0 °F 64% 29.92 in 10.0 mi West 10.4 mph - N/A   Overcast
10:54 PM 23.0 °F 11.1 °F 14.0 °F 68% 29.92 in 10.0 mi West 12.7 mph 16.1 mph N/A   Overcast
11:14 PM 23.0 °F 11.1 °F 12.2 °F 63% 29.92 in 10.0 mi West 12.7 mph - N/A   Overcast
11:35 PM 23.0 °F 11.7 °F 12.2 °F 63% 29.93 in 10.0 mi West 11.5 mph 17.3 mph N/A   Overcast